Wind_Speed
8 7 7 5 3 3 4 5 6 6 8 7 5 4 3 2 3 1 1 1 2 4 2 2 3 4 5 5 6 7 7 8 8 7 8 9 11 12 13 15 15 16 17 17
9 8 8 5 4 3 4 5 7 6 5 7 3 4 5 4 3 1 1 1 1 3 3 2 2 2 3 3 4 4 5 5 5 6 8 10 13 15 16 17 18 17 17 19
11 6 8 6 4 3 5 6 5 6 8 5 2 4 5 7 7 5 4 4 2 1 1 1 2 4 5 5 5 5 4 3 4 6 10 15 19 19 21 22 22 22 20 21
10 11 9 6 5 5 6 5 6 7 2 1 2 2 5 6 6 5 4 4 3 2 1 1 2 3 4 3 4 4 4 5 7 10 17 23 26 25 24 26 27 25 25 23
7 9 9 7 7 6 5 5 6 3 4 3 3 2 4 3 5 5 5 5 5 3 3 2 2 2 3 3 3 4 7 10 13 18 22 26 29 26 23 23 26 26 27 27
13 10 10 9 8 7 6 5 3 1 3 2 2 1 6 4 5 7 8 9 7 5 6 6 5 6 7 7 6 7 10 15 20 24 27 28 25 22 20 20 21 22 25 27
16 17 14 10 10 8 6 4 1 1 1 5 4 3 4 5 5 5 7 10 10 8 7 6 6 7 8 9 10 12 16 19 24 26 26 24 22 19 18 18 19 21 23 24
16 7 16 12 11 7 7 6 3 4 4 3 6 6 4 6 5 1 4 7 10 10 9 7 6 7 8 10 12 16 20 21 23 25 25 26 23 20 18 18 19 21 23 24
13 9 12 10 12 10 8 6 5 2 1 2 4 6 7 8 7 2 3 6 9 9 9 10 11 12 12 13 14 17 18 19 21 23 26 24 23 21 20 20 20 22 24 26
8 5 13 13 14 14 11 7 4 5 3 3 4 7 9 10 6 1 1 5 8 9 11 13 15 16 16 16 17 18 20 21 22 23 25 25 22 22 22 22 21 23 24 25
16 12 7 15 15 15 15 13 8 4 4 4 1 5 5 9 5 3 2 6 8 9 11 14 15 16 18 19 20 21 22 22 23 25 25 24 22 22 22 21 22 23 23 24
25 9 9 13 13 16 18 18 14 6 6 6 3 5 9 10 5 6 7 7 9 11 11 13 15 18 21 23 24 23 24 24 24 25 24 23 22 22 21 22 22 22 23 24
27 14 6 6 14 19 22 23 21 19 8 11 6 4 8 9 5 8 11 12 11 13 14 15 18 19 23 26 27 24 23 23 23 24 24 23 23 23 23 23 23 23 24 23
20 23 17 13 4 11 27 27 25 23 13 13 21 10 8 11 12 14 15 16 14 15 17 17 19 21 24 26 27 27 24 24 24 25 25 25 25 24 24 24 24 25 25 25
27 22 28 23 14 11 11 17 26 31 29 19 20 21 15 15 17 20 22 16 15 17 18 18 21 23 26 27 29 30 28 28 27 26 25 26 27 26 25 25 26 27 27 27
30 23 22 25 29 26 22 19 20 22 27 30 30 26 20 16 17 16 14 17 16 17 19 19 22 26 29 31 32 34 34 32 31 29 29 30 30 30 28 27 29 30 30 31
31 33 22 14 24 23 24 36 34 33 32 30 33 21 22 18 17 17 18 19 18 16 19 22 25 28 32 34 36 36 37 37 36 35 36 37 38 34 31 31 32 32 33 34
28 32 30 12 12 7 23 25 24 28 29 31 30 25 20 15 18 21 21 18 19 18 20 21 25 30 34 38 40 41 41 42 44 39 39 37 37 35 32 34 35 35 37 39
32 29 23 16 22 28 17 21 26 27 25 21 23 17 18 17 22 21 19 21 20 19 21 21 26 31 36 40 43 45 47 49 47 40 39 39 39 38 37 37 38 39 42 42
33 32 34 19 11 11 21 26 33 31 34 27 28 22 19 21 25 17 21 22 19 21 24 26 30 34 40 41 44 49 52 52 50 45 43 43 43 42 43 42 42 43 46 48
40 36 40 38 21 18 19 14 20 19 30 19 17 16 20 20 14 17 22 23 23 25 27 29 33 39 42 44 47 52 54 54 52 47 45 43 41 43 44 45 46 48 51 53
46 41 42 39 24 28 24 31 31 34 29 25 19 17 13 16 19 18 21 25 28 29 31 33 37 42 45 46 53 56 54 50 49 48 45 42 40 40 41 43 43 45 46 49
44 48 47 41 46 33 18 20 14 13 16 18 18 16 19 23 22 21 23 26 28 32 35 37 42 46 48 51 54 57 51 49 48 45 41 38 38 37 38 41 43 44 45 47
49 43 48 43 49 45 39 30 24 20 20 22 21 23 26 26 24 24 24 28 33 36 38 43 44 50 53 55 57 51 47 46 43 41 40 41 43 43 44 44 44 45 44 44
50 46 54 54 53 43 36 32 29 31 29 25 25 28 29 30 27 28 30 33 37 40 42 45 49 53 58 59 50 44 43 43 43 42 43 43 44 45 46 46 45 45 42 42
51 51 50 54 47 43 39 34 33 34 30 26 27 30 32 33 34 35 36 38 40 44 47 49 54 59 57 48 43 41 42 43 42 42 40 41 43 44 46 46 45 42 42 40
Wind_Direction
206 205 200 220 235 223 252 278 296 299 310 331 326 356 13 345 142 109 12 291 236 240 235 245 258 264 260 260 263 269 275 287 294 303 309 317 313 315 307 303 301 300 303 304
218 220 213 231 273 274 286 294 296 290 296 316 313 112 80 70 85 96 343 331 228 215 219 246 274 293 307 310 297 286 278 286 306 326 338 333 322 318 309 302 295 294 297 298
223 227 227 250 255 270 283 285 285 298 298 288 201 134 86 83 77 67 53 46 55 88 172 210 291 320 320 322 322 312 296 299 315 327 328 322 317 310 298 289 289 291 293 294
236 232 235 240 245 269 280 261 292 305 304 170 169 137 131 72 64 58 36 36 43 54 46 287 293 314 321 327 329 319 312 305 305 307 312 313 312 305 296 286 281 284 287 287
227 223 225 230 249 247 254 268 293 299 142 120 102 166 168 93 51 64 51 35 31 40 50 21 353 8 358 345 323 312 307 304 304 307 308 311 312 305 296 291 284 281 283 285
230 223 228 243 246 247 255 281 261 197 190 252 185 70 180 153 96 82 68 53 51 41 2 358 350 338 333 334 330 319 312 307 305 305 308 313 314 304 300 295 290 284 283 284
226 229 239 246 237 239 238 237 193 309 266 215 210 244 187 172 150 91 57 49 36 23 6 352 336 327 323 323 319 314 310 306 307 311 314 315 314 305 301 295 290 286 285 288
214 224 226 224 219 220 224 219 227 221 190 211 212 226 198 184 177 165 28 29 16 9 8 6 353 336 324 322 317 310 306 313 312 314 315 315 314 306 298 293 289 289 290 288
209 222 202 210 203 205 212 222 212 178 162 295 228 238 233 210 197 207 24 15 7 10 13 8 2 353 345 339 326 317 316 316 313 313 312 311 307 301 294 291 291 289 289 289
211 210 205 204 206 213 216 209 198 205 164 238 258 257 227 200 194 235 9 3 358 4 1 359 354 351 349 343 333 327 323 319 315 310 308 310 306 299 297 295 293 291 291 293
214 213 208 208 217 220 216 215 215 207 207 169 250 255 203 201 220 239 293 339 338 333 343 350 351 353 351 343 334 329 326 326 323 319 317 313 307 300 299 296 294 294 296 294
202 220 228 219 227 223 220 220 216 215 213 209 216 262 215 200 231 267 273 294 311 304 317 332 340 348 348 347 341 333 327 328 324 323 320 313 307 302 302 298 296 296 298 299
207 213 194 220 237 230 225 221 221 222 229 220 181 249 220 203 265 286 280 279 286 296 298 313 321 332 339 344 346 338 326 325 325 323 321 317 312 309 304 299 298 299 302 303
211 218 212 208 217 216 221 223 222 220 223 229 230 241 228 240 273 277 280 275 273 288 280 294 309 324 332 336 340 340 330 325 326 326 326 321 315 311 305 301 300 301 304 303
214 229 229 231 244 242 235 229 226 226 232 231 261 262 258 255 267 269 269 267 265 282 273 284 302 316 327 332 334 334 330 323 323 322 324 324 321 312 306 300 299 300 302 301
219 231 237 240 240 245 245 235 232 234 241 245 253 271 271 273 258 268 259 245 266 283 271 282 296 308 320 323 326 328 327 325 316 316 317 317 315 311 303 296 294 297 299 299
224 227 230 239 241 243 251 240 237 243 249 257 255 273 283 272 257 255 256 253 268 282 282 283 292 305 314 318 322 324 323 323 319 316 312 308 304 301 296 291 291 293 294 294
239 234 229 243 231 237 245 248 244 249 255 257 264 269 272 248 238 247 255 260 273 274 285 286 288 303 311 315 317 318 320 319 319 315 313 312 305 296 290 290 292 292 290 290
232 232 223 224 226 251 245 243 253 258 263 257 260 256 260 241 238 253 259 264 263 280 288 287 292 302 308 312 312 314 318 316 319 315 311 309 310 304 294 289 290 291 290 290
224 225 227 218 223 217 262 254 252 254 259 262 266 267 242 245 246 271 246 249 266 287 287 290 294 300 305 308 309 313 314 312 315 309 310 307 307 306 300 296 290 287 285 286
212 216 222 227 235 249 231 221 236 225 267 273 268 254 243 251 259 249 243 249 268 289 291 291 294 300 306 307 308 311 312 312 309 308 309 309 308 304 301 299 297 294 291 289
219 210 217 222 231 247 240 238 236 264 271 277 265 259 246 247 265 265 260 263 272 283 292 292 296 303 305 304 304 306 309 309 307 307 308 309 307 306 303 300 298 296 296 294
218 225 222 227 233 247 255 261 257 245 245 256 254 252 257 269 277 265 265 274 281 288 290 291 296 299 300 303 305 308 309 307 307 307 309 311 310 307 303 303 304 303 302 300
228 232 234 237 246 250 255 254 251 252 263 245 243 251 266 276 274 271 272 274 281 284 286 289 295 301 305 308 308 308 307 305 307 308 312 312 311 311 311 308 306 305 303 301
237 238 240 246 249 252 252 254 261 263 263 248 250 267 272 277 274 276 276 281 284 284 286 294 302 304 306 306 305 305 303 304 306 309 312 312 310 310 308 306 307 306 307 306
237 238 239 247 256 260 265 266 265 265 260 258 257 260 267 271 275 278 282 284 287 291 296 300 301 301 303 303 303 305 303 304 309 311 310 308 307 305 305 306 309 311 310 307
Height
3200 3201 3201 3201 3201 3200 3200 3199 3198 3197 3196 3195 3194 3193 3192 3191 3191 3192 3192 3192 3192 3191 3191 3191 3191 3192 3192 3192 3192 3192 3191 3189 3189 3188 3187 3186 3185 3184 3182 3181 3179 3177 3176 3174
3200 3199 3200 3200 3199 3198 3198 3197 3197 3196 3195 3194 3193 3193 3192 3191 3191 3191 3191 3191 3191 3191 3190 3190 3191 3191 3191 3191 3190 3190 3189 3188 3187 3186 3185 3185 3184 3182 3180 3178 3175 3174 3172 3169
3198 3199 3198 3199 3198 3198 3197 3196 3196 3196 3194 3193 3193 3194 3193 3192 3191 3191 3190 3190 3190 3191 3190 3190 3190 3190 3190 3190 3189 3188 3187 3186 3185 3184 3183 3182 3180 3179 3176 3173 3171 3170 3168 3166
3197 3197 3197 3197 3197 3197 3196 3195 3195 3194 3193 3193 3194 3194 3193 3192 3191 3191 3190 3190 3190 3190 3190 3190 3189 3190 3189 3188 3187 3186 3186 3185 3184 3183 3181 3179 3176 3173 3171 3168 3166 3164 3163 3161
3196 3195 3195 3196 3196 3196 3196 3195 3194 3194 3193 3194 3193 3194 3192 3192 3191 3191 3190 3190 3190 3189 3189 3189 3188 3188 3188 3187 3186 3185 3184 3183 3182 3180 3178 3175 3171 3168 3165 3163 3160 3159 3157 3156
3193 3193 3194 3194 3194 3194 3195 3195 3194 3194 3194 3194 3192 3193 3191 3191 3191 3190 3190 3190 3189 3189 3189 3188 3187 3187 3186 3184 3183 3182 3182 3181 3178 3176 3173 3169 3165 3162 3160 3158 3155 3154 3152 3150
3189 3190 3191 3192 3192 3193 3193 3194 3194 3196 3195 3193 3191 3191 3189 3189 3189 3190 3190 3189 3189 3188 3187 3186 3185 3184 3183 3182 3181 3179 3178 3177 3173 3170 3167 3164 3161 3158 3156 3153 3151 3149 3147 3145
3187 3189 3188 3189 3190 3191 3192 3192 3192 3191 3194 3190 3190 3187 3186 3187 3188 3188 3189 3189 3188 3186 3185 3184 3183 3182 3181 3179 3177 3175 3173 3171 3168 3164 3161 3159 3156 3154 3152 3150 3147 3145 3143 3140
3183 3185 3185 3186 3187 3190 3189 3190 3191 3190 3190 3190 3187 3185 3184 3184 3186 3187 3187 3187 3186 3185 3184 3182 3181 3180 3178 3176 3174 3172 3170 3167 3164 3161 3157 3154 3152 3149 3147 3145 3143 3141 3138 3135
3182 3183 3183 3184 3186 3187 3187 3189 3190 3188 3190 3189 3184 3182 3180 3182 3184 3185 3185 3185 3184 3182 3181 3180 3178 3177 3175 3173 3171 3169 3166 3163 3160 3157 3153 3150 3147 3144 3142 3139 3138 3135 3132 3129
3179 3181 3182 3182 3182 3183 3184 3184 3186 3186 3186 3185 3187 3178 3178 3180 3182 3183 3183 3182 3182 3181 3180 3178 3176 3175 3173 3171 3168 3165 3162 3159 3155 3151 3148 3144 3141 3139 3137 3135 3132 3129 3127 3123
3175 3178 3178 3179 3178 3179 3179 3180 3182 3182 3183 3182 3182 3177 3176 3177 3179 3180 3180 3180 3179 3179 3178 3176 3174 3172 3170 3167 3164 3161 3157 3153 3150 3146 3143 3140 3137 3134 3132 3130 3127 3124 3122 3118
3170 3171 3174 3175 3177 3174 3173 3175 3177 3179 3180 3178 3179 3175 3173 3175 3176 3177 3177 3177 3177 3176 3174 3173 3171 3169 3167 3164 3160 3157 3153 3150 3146 3142 3139 3135 3132 3129 3127 3124 3122 3119 3116 3113
3166 3165 3165 3166 3165 3166 3165 3168 3172 3175 3175 3172 3171 3171 3172 3173 3173 3173 3173 3173 3173 3172 3170 3169 3167 3166 3163 3160 3156 3153 3149 3146 3142 3138 3134 3131 3127 3124 3121 3118 3116 3113 3110 3107
3161 3159 3161 3162 3163 3163 3162 3163 3165 3165 3167 3167 3166 3166 3168 3169 3169 3169 3168 3168 3168 3167 3165 3165 3163 3160 3158 3155 3152 3148 3145 3141 3137 3134 3130 3126 3122 3118 3115 3113 3110 3107 3103 3100
3155 3155 3157 3157 3158 3158 3158 3159 3159 3160 3161 3160 3160 3157 3160 3162 3161 3161 3161 3162 3162 3161 3160 3160 3158 3155 3152 3150 3147 3143 3139 3135 3131 3128 3124 3120 3115 3111 3108 3106 3103 3100 3096 3093
3151 3151 3153 3152 3153 3153 3150 3147 3151 3152 3152 3154 3152 3152 3155 3156 3156 3156 3155 3156 3156 3155 3154 3154 3152 3149 3146 3143 3141 3137 3133 3128 3124 3120 3116 3111 3106 3102 3099 3095 3093 3091 3087 3084
3144 3147 3149 3149 3149 3146 3139 3141 3144 3144 3146 3146 3145 3147 3149 3149 3149 3149 3149 3151 3150 3150 3150 3148 3146 3143 3140 3137 3133 3131 3126 3121 3115 3111 3106 3101 3096 3092 3090 3087 3085 3081 3077 3073
3138 3141 3143 3143 3140 3134 3132 3135 3137 3137 3138 3140 3138 3142 3143 3142 3142 3144 3144 3145 3145 3144 3143 3142 3139 3137 3135 3131 3125 3121 3118 3111 3107 3102 3097 3092 3088 3084 3081 3078 3076 3073 3068 3064
3129 3132 3136 3132 3132 3125 3123 3129 3133 3132 3125 3134 3133 3135 3136 3136 3135 3139 3138 3139 3139 3139 3137 3135 3132 3129 3127 3124 3118 3113 3109 3102 3098 3093 3089 3085 3081 3076 3072 3068 3065 3061 3056 3052
3117 3121 3121 3125 3123 3114 3119 3122 3125 3126 3123 3125 3126 3127 3128 3130 3132 3131 3132 3132 3133 3132 3130 3128 3125 3122 3118 3113 3108 3104 3099 3093 3087 3084 3080 3076 3071 3066 3061 3057 3054 3049 3044 3040
3101 3109 3109 3115 3117 3107 3113 3112 3117 3117 3116 3119 3120 3120 3123 3124 3124 3125 3126 3126 3126 3125 3122 3119 3116 3112 3110 3106 3099 3094 3090 3084 3078 3074 3069 3065 3061 3056 3051 3046 3042 3037 3032 3028
3093 3092 3095 3096 3088 3094 3102 3106 3109 3109 3112 3113 3114 3116 3117 3117 3118 3119 3119 3119 3117 3115 3113 3110 3107 3104 3101 3097 3090 3082 3078 3071 3067 3062 3059 3055 3050 3047 3042 3036 3031 3026 3021 3015
3080 3084 3086 3087 3084 3090 3096 3101 3103 3104 3106 3106 3107 3109 3110 3110 3111 3112 3111 3111 3109 3107 3104 3101 3098 3094 3090 3085 3078 3072 3065 3059 3056 3052 3049 3044 3039 3035 3030 3024 3019 3013 3008 3002
3072 3076 3073 3075 3076 3084 3088 3092 3096 3098 3098 3099 3101 3102 3101 3101 3102 3102 3102 3101 3099 3097 3095 3091 3086 3081 3077 3072 3066 3061 3055 3050 3047 3043 3039 3034 3028 3023 3018 3012 3007 3001 2997 2991
3055 3060 3064 3060 3072 3076 3081 3086 3088 3088 3090 3093 3093 3093 3093 3092 3092 3091 3091 3089 3087 3085 3081 3078 3074 3068 3065 3059 3055 3051 3046 3042 3038 3033 3028 3023 3019 3014 3008 3003 2998 2992 2986 2980